Regional Weather Roundup
Issued by NWS

Home | Current Version | Previous Version | Graphics & Text | Print | Product List | Glossary On
Versions: 1 2 3 4 5 6 7 8 9 10 11 12 13 14 15 16 17 18 19 20 21 22 23 24 25 26 27 28 29 30 31 32 33 34 35 36 37 38 39 40 41 42 43 44 45 46 47 48 49 50
877
ASUS43 KMPX 221310
RWRMN
WEATHER ROUNDUP FOR MINNESOTA
NATIONAL WEATHER SERVICE TWIN CITIES/CHANHASSEN MN
800 AM CDT SUN OCT 22 2017


NOTE: "FAIR" INDICATES FEW OR NO CLOUDS BELOW 12,000 FEET WITH NO
SIGNIFICANT WEATHER AND/OR OBSTRUCTIONS TO VISIBILITY. N/A MEANS
CURRENT SKY AND/OR WEATHER CONDITIONS ARE NOT AVAILABLE.

MNZ060>063-068>070-221400-
   Twin Cities Metro

CITY           SKY/WX    TMP DP  RH WIND       PRES   REMARKS
TWIN CITIES    CLOUDY    48  43  82 W8        29.96R
ST PAUL        CLOUDY    49  42  77 W5        29.97R
CRYSTAL        CLOUDY    48  38  68 W10       29.95R
BLAINE         CLOUDY    48  43  81 SW7       29.95R
LAKEVILLE      CLOUDY    46  41  81 W5        29.97R
EDEN PRAIRIE   CLOUDY    47  41  80 W6        29.96R
SOUTH ST PAUL  CLOUDY    48  41  76 W3        29.96R
LAKE ELMO      FAIR      50  41  71 SW5       29.96R
$$
MNZ001>005-007-008-013>017-022>024-027-028-221400-
   Northwest Minnesota

CITY           SKY/WX    TMP DP  RH WIND       PRES   REMARKS
BEMIDJI        CLEAR     41  34  76 SW10      29.79R
HALLOCK        PTCLDY    43  36  75 SW16      29.70R
ROSEAU         PTCLDY    45  37  76 SW17      29.67R
WARROAD        CLOUDY    45  37  76 SW17G25   29.66R
THIEF RVR FALL PTCLDY    40  33  76 SW13      29.77R
CROOKSTON      CLEAR     39  34  81 W12       29.80R
FOSSTON        CLEAR     36  30  80 SW12      29.81R
DETROIT LAKES  CLEAR     43  34  70 SW9       29.87R
MOORHEAD       CLEAR     39  32  75 SW9       29.88R
PARK RAPIDS    CLEAR     39  34  82 SW8       29.83R
MAHNOMEN       FAIR      39  33  79 SW10      29.83R
$$
MNZ006-009>011-018-025>026-221400-
   North Central Minnesota

CITY           SKY/WX    TMP DP  RH WIND       PRES   REMARKS
BAUDETTE       CLOUDY    45  38  76 SW15G24   29.67S
FLAG ISLAND    CLOUDY    45  39  81 SW20G25   29.61R
INTL FALLS     CLOUDY    44  39  82 SW8       29.70R
WASKISH        CLEAR     46  39  76 SW17G26   29.74R
BIG FORK       CLEAR     43  37  81 SW9       29.76R
LONGVILLE      CLEAR     43  37  81 SW9G16    29.83R
GRAND RAPIDS   PTCLDY    44  38  79 SW9       29.82R
CRANE LAKE     CLOUDY    45  39  81 SW7       29.75R
ORR            CLOUDY    45  37  76 SW7       29.73R
COOK           CLOUDY    45  39  81 SW7       29.77R
WALKER         FAIR      42  35  76 SW9       29.81R
$$
MNZ012-019>021-037-221400-
   Northeast Minnesota

CITY           SKY/WX    TMP DP  RH WIND       PRES   REMARKS
DULUTH         CLOUDY    45  42  89 W17G24    29.83R
ELY            CLOUDY    45  39  81 SW8       29.76R
HIBBING        MOCLDY    43  40  89 SW5       29.79R
EVELETH        CLOUDY    44  42  94 SW9G16    29.80R
DULUTH HARBOR  CLOUDY    48  45  87 SW10      29.85R
TWO HARBORS    MOCLDY    48  45  87 S9        29.81R
SILVER BAY     MOCLDY    46  45  93 SW5       29.78R
GRAND MARAIS     N/A     48  45  89 W9        29.78R
G MARAIS ARPRT CLOUDY    46  39  76 SW9       29.77R
$$
MNZ029>031-032-039>041-046>048-054>057-064-221400-
   West Central Minnesota

CITY           SKY/WX    TMP DP  RH WIND       PRES   REMARKS
FERGUS FALLS   CLEAR     36  34  93 SW7       29.92R
WHEATON        CLEAR     39  32  75 SW9       29.96R
MORRIS         CLEAR     39  36  87 W9        29.93R
ALEXANDRIA     CLEAR     40  36  86 SW7       29.93R
ELBOW LAKE     FAIR      37  35  94 SW9       29.92R
WADENA         CLEAR     39  36  87 SW6       29.87R
GLENWOOD       CLEAR     39  37  93 SW9       29.94R
APPLETON       CLEAR     39  34  81 SW8       29.95R
BENSON         CLEAR     37  34  87 W6        29.97R
ORTONVILLE     CLEAR     39  34  81 NW5       29.96R
MADISON        CLEAR     41  36  81 SW6       29.97S
WILLMAR        FAIR      39  37  93 SW6       29.98R
$$
MNZ033>034-036-042>043-049>051-058-059-221400-
   Central Minnesota

CITY           SKY/WX    TMP DP  RH WIND       PRES   REMARKS
ST CLOUD       CLOUDY    43  39  86 SW9       29.94R
SAUK CENTRE    FAIR      41  37  86 SW7       29.93R
PAYNESVILLE    CLEAR     40  38  93 W5        29.95R
AITKIN         PTCLDY    41  37  87 SW7       29.85R
PINE RIVER     CLEAR     39  36  87 SW3       29.89R
BRAINERD       CLEAR    N/A N/A N/A W12       29.88R
STAPLES        CLEAR     39  36  87 SW7       29.88R
LONG PRAIRIE   FAIR      37  36  93 S7        29.93R
LITTLE FALLS   CLOUDY    41  32  70 SW5       29.92R
LITCHFIELD     CLOUDY    43  39  87 SW3       29.97R
BUFFALO        CLOUDY    44  40  83 SW3       29.97R
MAPLE LAKE     PTCLDY    45  41  86 SW7       29.97R
HUTCHINSON     PTCLDY    43  40  89 CALM      29.98R
$$
MNZ037-044-045-052-053-221400-
   East Central Minnesota

CITY           SKY/WX    TMP DP  RH WIND       PRES   REMARKS
PRINCETON      CLOUDY    46  41  81 SW5       29.94R
MORA           CLOUDY    45  39  81 SW6       29.92R
CAMBRIDGE      CLOUDY    48  39  71 SW6       29.93R
RUSH CITY      CLOUDY    47  40  78 SW7       29.92R
MOOSE LAKE     CLOUDY    45  39  81 CALM      29.86R
HINCKLEY       FAIR      45  43  93 SW7       29.90R
CLOQUET        CLOUDY    45  39  81 SW7       29.85R
MCGREGOR       CLOUDY    43  39  87 SW5       29.86R
$$
MNZ071>073-080-081-089-090-097-098-221400-
   Southwest Minnesota

CITY           SKY/WX    TMP DP  RH WIND       PRES   REMARKS
MONTEVIDEO     CLEAR     39  36  87 W7        29.98R
GRANITE FALLS  CLEAR     38  35  89 SW7       30.00R
CANBY          CLEAR     43  35  71 SW13      29.99R
MARSHALL       CLEAR     43  35  73 W12       29.99R
REDWOOD FALLS  PTCLDY    43  35  73 SW7       29.98R
OLIVIA         CLEAR     39  36  87 SW7       29.97R
PIPESTONE      CLEAR     32  30  93 CALM      30.01S
JACKSON        PTCLDY    41  36  81 W8        30.03R
TRACY          CLEAR     43  37  79 SW9       30.00R
SLAYTON        CLEAR     40  35  81 W7        30.02R
$$
MNZ065>067-074>077-082>085-091>093-221400-
   South Central Minnesota

CITY           SKY/WX    TMP DP  RH WIND       PRES   REMARKS
MANKATO        CLOUDY    44  40  85 W7        30.00R
NEW ULM          N/A     41  37  87 CALM      29.99S
ST JAMES       CLOUDY    43  37  81 SW6       30.02R
FAIRMONT       CLOUDY    44  39  82 W8        30.02R
GLENCOE        MOCLDY    44  41  90 SW5       29.97R
FARIBAULT      CLOUDY    46  43  87 SW3       29.99R
OWATONNA       CLOUDY    46  43  87 SW5       29.99R
WASECA         CLOUDY    45  41  87 W3        30.01R
$$
MNZ078>079-086>088-094>096-221400-
   Southeast Minnesota

CITY           SKY/WX    TMP DP  RH WIND       PRES   REMARKS
ROCHESTER      CLOUDY    47  43  86 W7        29.98R
RED WING       MOCLDY    50  41  71 W3        29.95R
STANTON        CLOUDY    48  42  80 SW5       29.96R
DODGE CENTER   CLOUDY    46  41  81 W9        29.97S
WINONA         CLOUDY    50  45  81 CALM      29.96S
AUSTIN         PTCLDY    48  41  76 W9        29.98R
PRESTON        CLOUDY    47  43  84 NW6       29.98R
$$
ABBREVIATIONS USED IN REMARKS
   TC - TEMPERATURES IN CELSIUS
  WCI - WIND CHILL INDEX
   HX - HEAT INDEX
  VSB - VISIBILITY
$$




USA.gov is the U.S. government's official web portal to all federal, state and local government web resources and services.